GW4808 Weather Reports


Display with metric or nautical units.
time (UTC)temp
F
wind
direction
speed
MPH
gust
MPH
rain 1hr
in
rain 24hr
in
rain mn
in
humidity
%
barometer
mb
20260504214305 63 115 14.0 15.0 0.00 0.00 0.00 95 1015.8
20260504213705 63 114 14.0 15.0 0.00 0.00 0.00 95 1015.8
20260504213105 61 114 15.0 16.0 0.00 0.00 0.00 99 1015.7
20260504212505 60 114 15.0 16.0 0.00 0.00 0.00 99 1015.7
20260504211905 60 125 14.0 16.0 0.00 0.00 0.00 99 1015.5
20260504211304 59 135 15.0 16.0 0.00 0.00 0.00 99 1015.5
20260504210704 59 236 15.0 16.0 0.00 0.00 0.00 99 1015.5
20260504210105 59 121 14.0 16.0 0.00 0.00 0.00 99 1015.4
20260504204905 58 128 15.0 16.0 0.00 0.00 0.00 99 1015.2
20260504204305 58 168 15.0 16.0 0.00 0.00 0.00 99 1015.0
20260504203705 58 239 15.0 16.0 0.00 0.00 0.00 99 1014.9
20260504203105 59 232 15.0 17.0 0.00 0.00 0.00 99 1014.8
20260504202504 59 169 15.0 17.0 0.00 0.00 0.00 99 1014.9
20260504201904 59 147 15.0 16.0 0.00 0.00 0.00 99 1014.5
20260504201304 59 118 15.0 15.0 0.00 0.00 0.00 99 1014.4
20260504200704 59 117 15.0 16.0 0.00 0.00 0.00 99 1014.4
20260504200105 59 117 15.0 16.0 0.00 0.00 0.00 99 1014.3
20260504195505 59 116 15.0 16.0 0.00 0.00 0.00 99 1014.2
20260504194905 59 132 15.0 16.0 0.00 0.00 0.00 99 1014.3
20260504194305 59 157 15.0 16.0 0.00 0.00 0.00 99 1014.2
20260504193705 58 151 15.0 16.0 0.00 0.00 0.00 99 1014.3
20260504193105 58 139 15.0 16.0 0.00 0.00 0.00 99 1014.3
20260504192504 58 216 15.0 17.0 0.00 0.00 0.00 99 1014.2
20260504191304 58 233 15.0 16.0 0.00 0.00 0.00 99 1014.0
20260504190705 58 179 15.0 16.0 0.00 0.00 0.00 99 1014.2
20260504190105 58 253 15.0 16.0 0.00 0.00 0.00 99 1014.0
20260504185505 58 261 15.0 16.0 0.00 0.00 0.00 99 1014.1
20260504184905 58 188 15.0 16.0 0.00 0.00 0.00 99 1014.2
20260504184305 58 230 15.0 16.0 0.00 0.00 0.00 99 1014.0
20260504183105 59 245 15.0 16.0 0.00 0.00 0.00 99 1013.8
20260504182505 59 208 15.0 16.0 0.00 0.00 0.00 99 1013.8
20260504181904 59 100 15.0 16.0 0.00 0.00 0.00 99 1014.0
20260504181305 59 107 15.0 16.0 0.00 0.00 0.00 99 1013.9
20260504175505 59 138 14.0 16.0 0.00 0.00 0.00 99 1013.9
20260504174304 59 119 15.0 16.0 0.00 0.00 0.00 99 1014.0
20260504173704 59 118 15.0 16.0 0.00 0.00 0.00 99 1013.8
20260504173104 59 126 15.0 17.0 0.00 0.00 0.00 99 1013.9
20260504172505 59 155 15.0 17.0 0.00 0.00 0.00 99 1013.8
20260504170105 59 124 15.0 17.0 0.00 0.00 0.00 99 1014.0
20260504160104 59 260 15.0 16.0 0.00 0.00 0.00 99 1014.5
20260504150704 60 132 15.0 16.0 0.00 0.00 0.00 99 1015.0
20260504150104 60 124 14.0 16.0 0.00 0.00 0.00 99 1015.0
20260504141304 60 178 15.0 16.0 0.00 0.00 0.00 99 1015.2
20260504140105 61 191 15.0 16.0 0.00 0.00 0.00 99 1015.2
20260504130705 61 138 15.0 17.0 0.00 0.00 0.00 99 1015.5
20260504130105 61 142 15.0 17.0 0.00 0.00 0.00 99 1015.5
20260504110705 62 257 15.0 17.0 0.00 0.01 0.00 99 1016.0
20260504110105 63 248 15.0 17.0 0.00 0.01 0.00 99 1016.0
20260504090104 64 138 14.0 16.0 0.00 0.02 0.00 96 1015.0
20260504081305 71 110 9.0 10.0 0.00 0.02 0.00 79 1014.3
20260504080705 72 108 9.0 11.0 0.00 0.02 0.00 77 1014.3
20260504080104 73 115 9.0 11.0 0.00 0.02 0.00 76 1014.3
20260504070105 77 99 8.0 12.0 0.00 0.02 0.00 69 1013.5
20260504050704 83 85 15.0 17.0 0.00 0.02 0.00 56 1013.2
20260504050105 83 74 15.0 19.0 0.00 0.02 0.00 56 1013.0
20260504045505 83 111 14.0 19.0 0.00 0.02 0.00 55 1013.0
20260504044905 83 95 12.0 15.0 0.00 0.02 0.00 55 1013.0
20260504044305 83 97 14.0 17.0 0.00 0.02 0.00 56 1013.1
20260504043704 83 103 14.0 17.0 0.00 0.02 0.00 56 1013.2
20260504042505 83 92 8.0 12.0 0.00 0.02 0.00 54 1013.1
20260504041905 83 107 9.0 12.0 0.00 0.02 0.00 56 1013.0
20260504041304 84 97 12.0 16.0 0.00 0.02 0.00 56 1013.0
20260504040705 84 78 14.0 17.0 0.00 0.02 0.00 56 1013.0
20260504040105 84 79 14.0 18.0 0.00 0.02 0.00 55 1013.0
20260504035504 83 106 13.0 18.0 0.00 0.02 0.00 54 1013.0
20260504034904 84 98 13.0 16.0 0.00 0.02 0.00 54 1013.1
20260504034304 84 103 14.0 17.0 0.00 0.02 0.00 54 1013.1
20260504033705 83 100 15.0 17.0 0.00 0.02 0.00 56 1013.2
20260504033105 83 99 14.0 17.0 0.00 0.02 0.00 54 1013.2
20260504031905 84 104 14.0 18.0 0.00 0.02 0.00 54 1013.5
20260504031305 84 84 14.0 18.0 0.00 0.02 0.00 56 1013.4
20260504030104 83 97 14.0 18.0 0.00 0.02 0.00 58 1013.7
20260504024905 83 117 14.0 20.0 0.00 0.02 0.00 57 1014.0
20260504024305 83 108 14.0 19.0 0.00 0.02 0.00 58 1014.1
20260504023705 82 112 13.0 17.0 0.00 0.02 0.00 60 1014.3
20260504023104 82 117 12.0 16.0 0.00 0.02 0.00 61 1014.5
20260504022504 82 106 14.0 17.0 0.00 0.02 0.00 59 1014.7
20260504021904 81 97 14.0 16.0 0.00 0.02 0.00 65 1014.7
20260504020705 81 103 15.0 19.0 0.00 0.02 0.00 66 1014.8
20260504020105 80 131 14.0 19.0 0.00 0.02 0.00 68 1014.8
20260504015505 79 124 15.0 20.0 0.00 0.02 0.00 73 1015.0
20260504014905 80 114 15.0 20.0 0.00 0.02 0.00 70 1015.2
20260504014305 80 110 15.0 18.0 0.00 0.02 0.00 72 1015.1
20260504013704 80 111 15.0 18.0 0.00 0.02 0.00 72 1015.4
20260504013105 78 96 14.0 17.0 0.00 0.02 0.00 74 1015.5
20260504010705 80 116 16.0 23.0 0.00 0.02 0.00 68 1015.5
20260504010105 79 118 15.0 18.0 0.00 0.02 0.00 70 1015.8
20260504005505 79 112 15.0 20.0 0.00 0.02 0.00 69 1015.8
20260504003105 80 103 15.0 20.0 0.00 0.03 0.00 70 1016.1
20260504002505 80 107 14.0 18.0 0.00 0.03 0.00 71 1016.1
20260504001904 79 111 15.0 17.0 0.00 0.03 0.00 71 1016.2
20260504000705 78 100 15.0 19.0 0.00 0.03 0.00 74 1016.2
20260504000105 78 98 15.0 19.0 0.00 0.03 0.00 75 1016.2
20260503235505 78 107 14.0 19.0 0.00 0.03 0.00 74 1016.3
20260503234905 77 112 14.0 19.0 0.00 0.03 0.00 76 1016.3
20260503234304 77 119 14.0 21.0 0.00 0.03 0.00 75 1016.4
20260503233105 76 95 14.0 18.0 0.00 0.03 0.00 78 1016.4
20260503232505 77 96 14.0 18.0 0.00 0.03 0.00 76 1016.4
20260503231904 77 99 14.0 19.0 0.00 0.03 0.00 75 1016.4
20260503230104 77 108 14.0 18.0 0.00 0.03 0.00 75 1016.1
20260503225504 76 114 14.0 18.0 0.00 0.03 0.00 78 1016.2
20260503224904 75 95 14.0 17.0 0.00 0.03 0.00 79 1016.2
20260503224305 75 90 15.0 17.0 0.00 0.03 0.00 77 1016.0
20260503223705 74 98 16.0 20.0 0.00 0.03 0.00 79 1016.0
20260503223105 74 105 16.0 20.0 0.00 0.03 0.00 80 1016.1
20260503222504 74 107 15.0 17.0 0.00 0.03 0.00 80 1016.0
20260503221904 74 118 15.0 17.0 0.00 0.03 0.00 82 1015.9
20260503221305 74 116 14.0 16.0 0.00 0.03 0.00 82 1015.8
20260503220705 73 88 14.0 16.0 0.00 0.03 0.00 82 1015.9
20260503220104 73 90 14.0 17.0 0.00 0.03 0.00 83 1015.9
20260503215505 73 141 14.0 17.0 0.00 0.03 0.00 85 1015.8
20260503214905 72 194 14.0 16.0 0.00 0.03 0.00 86 1016.0